This demonstration page uses our WeatherBlox Daily Observations layout. Learn more.

Left ArrowRight Arrow

53.62937, 11.41316

Hourly Observations for July 27, 2016

Temp ( °F °C ) Dew Point ( °F °C ) Humidity (%) Winds ( mph kmh ) Pressure ( in mb ) Visibility ( mi km ) Precip ( " mm )
6:20 am 06:20 Cloudy with Light Rain 59 15 59 15 100 100 NNW 5 7 30.09 1019 30 48 N/A
6:50 am 06:50 Mostly Cloudy with Light Rain 59 15 59 15 100 100 NNW 5 7 30.09 1019 30 48 N/A
7:20 am 07:20 Cloudy with Light Rain 59 15 59 15 100 100 E 5 7 30.06 1018 5 8 N/A
7:50 am 07:50 Mostly Cloudy with Light Rain 59 15 59 15 100 100 E 5 7 30.06 1018 30 48 N/A
8:20 am 08:20 Mostly Cloudy with Light Rain 59 15 59 15 100 100 E 7 11 30.06 1018 5 8 N/A
8:50 am 08:50 Mostly Cloudy with Light Rain 59 15 59 15 100 100 E 6 9 30.06 1018 5 8 N/A
9:20 am 09:20 Mostly Cloudy with Rain 59 15 57 14 94 94 E 9 15 30.06 1018 6 9 N/A
9:50 am 09:50 Mostly Cloudy with Light Rain 57 14 57 14 100 100 E 12 19 30.03 1017 30 48 N/A
10:20 am 10:20 Mostly Cloudy with Nearby Thunderstorms 57 14 57 14 100 100 E 13 20 30.03 1017 30 48 N/A
10:50 am 10:50 Mostly Cloudy 57 14 57 14 100 100 E 13 20 30.03 1017 30 48 N/A
11:20 am 11:20 Mostly Cloudy 59 15 59 15 100 100 E 7 11 30.03 1017 30 48 N/A
11:50 am 11:50 Partly Cloudy 61 16 59 15 94 94 E 7 11 30.00 1016 30 48 N/A
12:20 pm 12:20 Mostly Cloudy 63 17 61 16 94 94 E 8 13 30.00 1016 30 48 N/A
12:50 pm 12:50 Mostly Cloudy 66 19 63 17 88 88 E 8 13 30.00 1016 30 48 N/A
1:20 pm 13:20 Mostly Cloudy 66 19 63 17 88 88 E 6 9 30.00 1016 30 48 N/A
1:50 pm 13:50 Mostly Cloudy 66 19 61 16 83 83 ESE 8 13 30.00 1016 30 48 N/A
2:20 pm 14:20 Mostly Cloudy 66 19 61 16 83 83 ESE 10 17 29.97 1015 30 48 N/A
2:50 pm 14:50 Mostly Cloudy 66 19 61 16 83 83 ESE 8 13 29.97 1015 30 48 N/A
3:20 pm 15:20 Mostly Cloudy 66 19 61 16 83 83 SSE 5 7 29.97 1015 30 48 N/A
3:50 pm 15:50 Mostly Cloudy 66 19 61 16 83 83 SSE 7 11 29.97 1015 30 48 N/A
4:20 pm 16:20 Mostly Cloudy 70 21 61 16 73 73 SE 7 11 29.97 1015 30 48 N/A
4:50 pm 16:50 Partly Cloudy 72 22 63 17 73 73 S 6 9 29.97 1015 30 48 N/A
5:20 pm 17:20 Partly Cloudy 72 22 63 17 73 73 SE 6 9 29.94 1014 30 48 N/A
5:50 pm 17:50 Partly Cloudy 72 22 63 17 73 73 SSE 5 7 29.94 1014 30 48 N/A
6:20 pm 18:20 Mostly Sunny 73 23 63 17 69 69 S 5 7 29.94 1014 30 48 N/A
6:50 pm 18:50 Mostly Sunny 73 23 63 17 69 69 S 7 11 29.94 1014 30 48 N/A
7:20 pm 19:20 Mostly Sunny 72 22 61 16 69 69 SSW 6 9 29.94 1014 7 11 N/A

Powered by AerisWeather